Amelia, Virginia, United States
Lat: 37.37N, Lon: 77.92W
Wx Zone: VAZ068
Local Info
Past Weather Observations for Thursday, September 18, 2014

NOTE: This archive is for the closest National Weather Service station to Amelia. Information may differ from the station used for current weather conditions.

Click here for Long-term Archive

Time Weather Temperature Dewpoint Humidity Pressure Winds Precip Visibility
23:55
Partly Cloudy
57°F / 14°C 57°F / 14°C 100% 30.12 in
(1020 mb)
Calm - 10SM
23:35
Mostly Cloudy
59°F / 15°C 57°F / 14°C 94% 30.09 in
(1019 mb)
Calm - 10SM
23:15
Partly Cloudy
59°F / 15°C 57°F / 14°C 94% 30.09 in
(1019 mb)
Calm - 7SM
22:55
Partly Cloudy
59°F / 15°C 57°F / 14°C 94% 30.09 in
(1019 mb)
Calm - 10SM
22:35
Partly Cloudy
59°F / 15°C 57°F / 14°C 94% 30.09 in
(1019 mb)
Calm - 10SM
22:15
Partly Cloudy
63°F / 17°C 57°F / 14°C 83% 30.09 in
(1019 mb)
Calm - 10SM
21:55
Mostly Cloudy
63°F / 17°C 57°F / 14°C 83% 30.09 in
(1019 mb)
Calm - 10SM
21:35
Overcast
64°F / 18°C 57°F / 14°C 78% 30.09 in
(1019 mb)
Calm - 10SM
21:15
Overcast
66°F / 19°C 57°F / 14°C 73% 30.09 in
(1019 mb)
Calm - 10SM
20:55
Overcast
66°F / 19°C 57°F / 14°C 73% 30.06 in
(1018 mb)
ESE 4.6 mph
(ESE 7 kph)
- 10SM
20:35
Overcast
66°F / 19°C 59°F / 15°C 78% 30.06 in
(1018 mb)
Calm - 10SM
20:15
Overcast
66°F / 19°C 59°F / 15°C 78% 30.06 in
(1018 mb)
Calm - 10SM
19:55
Overcast
68°F / 20°C 57°F / 14°C 69% 30.06 in
(1018 mb)
Calm - 10SM
19:35
Overcast
68°F / 20°C 59°F / 15°C 73% 30.06 in
(1018 mb)
Calm - 10SM
19:15
Overcast
68°F / 20°C 61°F / 16°C 78% 30.04 in
(1017 mb)
ENE 3.5 mph
(ENE 6 kph)
- 10SM
18:55
Overcast
68°F / 20°C 61°F / 16°C 78% 30.04 in
(1017 mb)
Calm - 10SM
18:35
Overcast
68°F / 20°C 63°F / 17°C 83% 30.04 in
(1017 mb)
Calm - 10SM
18:15
Overcast
68°F / 20°C 63°F / 17°C 83% 30.04 in
(1017 mb)
Calm - 10SM
17:55
Overcast
70°F / 21°C 63°F / 17°C 78% 30.04 in
(1017 mb)
Calm - 10SM
17:35
Overcast
70°F / 21°C 61°F / 16°C 73% 30.01 in
(1016 mb)
Calm - 10SM
17:15
Overcast
70°F / 21°C 63°F / 17°C 78% 30.01 in
(1016 mb)
Calm - 10SM
16:55
Overcast
72°F / 22°C 63°F / 17°C 73% 30.01 in
(1016 mb)
Calm - 10SM
16:35
Overcast
72°F / 22°C 61°F / 16°C 69% 30.01 in
(1016 mb)
E 3.5 mph
(E 6 kph)
- 10SM
16:15
Overcast
72°F / 22°C 59°F / 15°C 65% 30.01 in
(1016 mb)
E 3.5 mph
(E 6 kph)
- 10SM
15:55
Overcast
72°F / 22°C 61°F / 16°C 69% 30.01 in
(1016 mb)
Calm - 10SM
15:35
Overcast
72°F / 22°C 61°F / 16°C 69% 30.01 in
(1016 mb)
Calm - 10SM
15:15
Overcast
73°F / 23°C 61°F / 16°C 65% 30.01 in
(1016 mb)
Calm - 10SM
14:55
Overcast
75°F / 24°C 57°F / 14°C 54% 30.01 in
(1016 mb)
E 3.5 mph
(E 6 kph)
- 10SM
14:35
Overcast
75°F / 24°C 57°F / 14°C 54% 30.01 in
(1016 mb)
E 5.8 mph
(E 9 kph)
- 10SM
14:15
Overcast
75°F / 24°C 59°F / 15°C 57% 30.01 in
(1016 mb)
Calm - 10SM
13:55
Overcast
73°F / 23°C 59°F / 15°C 61% 30.01 in
(1016 mb)
Calm - 10SM
13:35
Overcast
75°F / 24°C 57°F / 14°C 54% 30.01 in
(1016 mb)
Calm - 10SM
13:15
Overcast
77°F / 25°C 55°F / 13°C 47% 30.01 in
(1016 mb)
SW 4.6 mph
(SW 7 kph)
- 10SM
11:55
Mostly Cloudy
75°F / 24°C 55°F / 13°C 50% 30.04 in
(1017 mb)
Calm - 10SM
11:35
Mostly Cloudy
77°F / 25°C 55°F / 13°C 47% 30.04 in
(1017 mb)
E 3.5 mph
(E 6 kph)
- 10SM
11:15
Overcast
75°F / 24°C 57°F / 14°C 54% 30.04 in
(1017 mb)
SE 4.6 mph
(SE 7 kph)
- 10SM
10:55
Mostly Cloudy
75°F / 24°C 57°F / 14°C 54% 30.04 in
(1017 mb)
Calm - 10SM
10:35
Clear
73°F / 23°C 57°F / 14°C 57% 30.04 in
(1017 mb)
SE 4.6 mph
(SE 7 kph)
- 10SM
10:15
Clear
73°F / 23°C 57°F / 14°C 57% 30.04 in
(1017 mb)
Calm - 10SM
09:55
Clear
73°F / 23°C 57°F / 14°C 57% 30.04 in
(1017 mb)
SSE 4.6 mph
(SSE 7 kph)
- 10SM
09:35
Clear
72°F / 22°C 57°F / 14°C 61% 30.04 in
(1017 mb)
ESE 5.8 mph
(ESE 9 kph)
- 10SM
09:15
Clear
72°F / 22°C 59°F / 15°C 65% 30.04 in
(1017 mb)
SE 4.6 mph
(SE 7 kph)
- 10SM
08:55
Partly Cloudy
68°F / 20°C 61°F / 16°C 78% 30.04 in
(1017 mb)
Calm - 10SM
08:35
Mostly Cloudy
68°F / 20°C 61°F / 16°C 78% 30.04 in
(1017 mb)
Calm - 10SM
08:15
Clear
66°F / 19°C 61°F / 16°C 83% 30.04 in
(1017 mb)
Calm - 10SM
07:55
Clear
63°F / 17°C 61°F / 16°C 94% 30.04 in
(1017 mb)
Calm - 7SM
07:35
Clear
61°F / 16°C 59°F / 15°C 94% 30.01 in
(1016 mb)
Calm - 7SM
07:15
Clear
57°F / 14°C 57°F / 14°C 100% 30.01 in
(1016 mb)
Calm - 7SM
06:55
Partly Cloudy
Fog And Mist
57°F / 14°C 55°F / 13°C 94% 30.01 in
(1016 mb)
Calm - 5SM
06:35
Mostly Cloudy
54°F / 12°C 54°F / 12°C 100% 30.01 in
(1016 mb)
Calm - 7SM
06:15
Partly Cloudy
52°F / 11°C 52°F / 11°C 100% 30.01 in
(1016 mb)
Calm - 7SM
05:55
Mostly Cloudy
Fog And Mist
54°F / 12°C 52°F / 11°C 94% 30.01 in
(1016 mb)
Calm - 1SM
05:35
Partly Cloudy
52°F / 11°C 52°F / 11°C 100% 30.01 in
(1016 mb)
Calm - 7SM
05:15
Clear
54°F / 12°C 52°F / 11°C 94% 30.01 in
(1016 mb)
Calm - 7SM
04:55
Clear
52°F / 11°C 52°F / 11°C 100% 30.01 in
(1016 mb)
Calm - 7SM
04:35
Clear
Fog And Mist
54°F / 12°C 54°F / 12°C 100% 29.98 in
(1015 mb)
Calm - 4SM
04:15
Partly Cloudy
54°F / 12°C 54°F / 12°C 100% 29.98 in
(1015 mb)
Calm - 10SM
03:55
Partly Cloudy
54°F / 12°C 54°F / 12°C 100% 29.98 in
(1015 mb)
Calm - 7SM
03:35
Partly Cloudy
55°F / 13°C 54°F / 12°C 94% 29.98 in
(1015 mb)
Calm - 7SM
03:15
Mostly Cloudy
Fog And Mist
54°F / 12°C 54°F / 12°C 100% 29.98 in
(1015 mb)
Calm - 3SM
02:55
Clear
54°F / 12°C 54°F / 12°C 100% 29.98 in
(1015 mb)
Calm - 7SM
02:35
Clear
54°F / 12°C 52°F / 11°C 94% 29.98 in
(1015 mb)
Calm - 10SM
02:15
Partly Cloudy
54°F / 12°C 52°F / 11°C 94% 29.98 in
(1015 mb)
Calm - 7SM
01:55
Overcast
Fog And Mist
54°F / 12°C 52°F / 11°C 94% 29.98 in
(1015 mb)
Calm - 1SM
01:35
Partly Cloudy
Fog And Mist
54°F / 12°C 54°F / 12°C 100% 29.98 in
(1015 mb)
Calm - 1 3/4SM
01:15
Obscured
Fog And Mist
54°F / 12°C 54°F / 12°C 100% 29.98 in
(1015 mb)
Calm - 1 1/2SM
00:55
Obscured
Fog And Mist
55°F / 13°C 54°F / 12°C 94% 29.98 in
(1015 mb)
Calm - 1SM
00:35
Obscured
Fog And Mist
55°F / 13°C 54°F / 12°C 94% 29.98 in
(1015 mb)
Calm - 1SM
00:15
Clear
Fog And Mist
55°F / 13°C 54°F / 12°C 94% 29.98 in
(1015 mb)
Calm - 3SM
Time Weather Temperature Dewpoint Humidity Pressure Winds Precip Visibility


Weather for websites

WeatherForYou.com, LLC is not responsible for any damages or problems caused by this service. Current weather conditions are obtained from the closest station including government and personal stations which may have varying degrees of accuracy. Weather forecasts are derived from the NOAA NDFD. Like all things, this site belongs to Jesus Christ... He just trusts me to maintain it. If you have any questions or comments email webmaster@weatherforyou.com

Copyright © 2014, WeatherForYou.com LLC. All rights reserved.